Location: Étavigny
(49.1201°N, 2.9800°E)
Time: 00:29:06
(UTC+00:00)

BREEZE M DEB (TANK) - Pass Details

Date: 28 January 2023
Orbit: 341 x 13534 km, 49.6° (Epoch: 19 March)

Event Time Altitude Azimuth Distance (km) Brightness Sun altitude
Rises 18:48:55 0° 291° (WNW) 4,372 8.5 -21.4°
Reaches altitude 10° 18:53:11 10° 281° (W) 2,353 7.1 -22.0°
Maximum altitude 18:56:59 26° 222° (SW) 933 4.4 -22.7°
Enters shadow 18:57:39 24° 198° (SSW) 926 4.1 -22.8°
